SHT12U EGLL-EGNT

Flight info

Callsign SHT12U
Flight time 0h 48m
Altitude 28000
Route UMLAT1G UMLAT T418 WELIN T420 AKUPA UY250 RIMTO RIMTO2N
Aircraft A320/M-SDE3FGHIJ1RWXY/S

Departure

Time 2026-05-03 20:19
Airport London Heathrow Airport (EGLL)

Arrival

Time 2026-05-03 21:07
Airport Newcastle International Airport (EGNT)
Time Latitude Longitude Altitude Speed Heading
2026-05-03 20:15 51.46638 -0.43435 91 ft 0 kts 181°
2026-05-03 20:15 51.46612 -0.43436 91 ft 10 kts 181°
2026-05-03 20:15 51.46515 -0.43448 91 ft 16 kts 211°
2026-05-03 20:16 51.46494 -0.43547 89 ft 0 kts 266°
2026-05-03 20:17 51.46494 -0.43551 89 ft 2 kts 266°
2026-05-03 20:18 51.46493 -0.43710 88 ft 40 kts 270°
2026-05-03 20:18 51.46490 -0.44479 94 ft 97 kts 269°
2026-05-03 20:18 51.46487 -0.45860 92 ft 149 kts 270°
2026-05-03 20:18 51.46493 -0.47567 605 ft 152 kts 271°
2026-05-03 20:19 51.46497 -0.49263 1236 ft 153 kts 270°
2026-05-03 20:19 51.46600 -0.51038 1638 ft 171 kts 284°
2026-05-03 20:19 51.47132 -0.52897 1944 ft 197 kts 297°
2026-05-03 20:19 51.47824 -0.54944 2401 ft 221 kts 298°
2026-05-03 20:20 51.48578 -0.57252 2947 ft 246 kts 297°
2026-05-03 20:20 51.49384 -0.59770 3711 ft 260 kts 297°
2026-05-03 20:20 51.50212 -0.62380 4713 ft 265 kts 296°
2026-05-03 20:20 51.51129 -0.64990 5572 ft 273 kts 306°
2026-05-03 20:21 51.52535 -0.67044 5900 ft 276 kts 329°
2026-05-03 20:21 51.54374 -0.68020 5985 ft 277 kts 353°
2026-05-03 20:21 51.56298 -0.68227 6002 ft 277 kts 356°
2026-05-03 20:21 51.58222 -0.68425 5983 ft 277 kts 356°
2026-05-03 20:22 51.60143 -0.68634 5986 ft 276 kts 356°
2026-05-03 20:22 51.62066 -0.68848 6027 ft 279 kts 356°
2026-05-03 20:22 51.63986 -0.69065 6851 ft 280 kts 355°
2026-05-03 20:22 51.65941 -0.69283 7776 ft 283 kts 355°
2026-05-03 20:23 51.67923 -0.69505 8684 ft 288 kts 355°
2026-05-03 20:23 51.69939 -0.69731 9589 ft 293 kts 355°
2026-05-03 20:23 51.72006 -0.69964 10226 ft 307 kts 355°
2026-05-03 20:23 51.74221 -0.70212 10542 ft 331 kts 355°
2026-05-03 20:24 51.76574 -0.70475 11035 ft 344 kts 355°
2026-05-03 20:24 51.78983 -0.70745 11760 ft 350 kts 354°
2026-05-03 20:24 51.81430 -0.71019 12509 ft 355 kts 354°
2026-05-03 20:24 51.83908 -0.71296 13275 ft 359 kts 354°
2026-05-03 20:25 51.86419 -0.71577 13764 ft 364 kts 354°
2026-05-03 20:25 51.88944 -0.71861 13882 ft 366 kts 354°
2026-05-03 20:25 51.91520 -0.72152 13910 ft 374 kts 354°
2026-05-03 20:25 51.94122 -0.72445 13910 ft 375 kts 354°
2026-05-03 20:26 51.96733 -0.72741 13906 ft 376 kts 354°
2026-05-03 20:26 51.99344 -0.73036 13907 ft 376 kts 354°
2026-05-03 20:26 52.01937 -0.73494 13904 ft 374 kts 347°
2026-05-03 20:26 52.04439 -0.74613 13903 ft 373 kts 340°
2026-05-03 20:27 52.06905 -0.75905 13904 ft 373 kts 340°
2026-05-03 20:27 52.09376 -0.77198 13902 ft 373 kts 340°
2026-05-03 20:27 52.11843 -0.78487 13901 ft 373 kts 340°
2026-05-03 20:27 52.14328 -0.79785 13922 ft 381 kts 340°
2026-05-03 20:28 52.16911 -0.81138 14047 ft 399 kts 340°
2026-05-03 20:28 52.19608 -0.82554 14205 ft 415 kts 340°
2026-05-03 20:28 52.22327 -0.83975 15245 ft 402 kts 340°
2026-05-03 20:28 52.24911 -0.85512 16342 ft 392 kts 333°
2026-05-03 20:29 52.27275 -0.87694 17130 ft 391 kts 326°
2026-05-03 20:29 52.29599 -0.90013 17834 ft 393 kts 326°
2026-05-03 20:29 52.31941 -0.92362 18460 ft 397 kts 326°
2026-05-03 20:29 52.34274 -0.94706 19030 ft 400 kts 326°
2026-05-03 20:30 52.36655 -0.97095 19613 ft 404 kts 326°
2026-05-03 20:30 52.39064 -0.99506 20213 ft 407 kts 326°
2026-05-03 20:30 52.41520 -1.01967 20779 ft 411 kts 326°
2026-05-03 20:30 52.43969 -1.04416 21317 ft 414 kts 326°
2026-05-03 20:31 52.46506 -1.06695 21833 ft 419 kts 334°
2026-05-03 20:31 52.49293 -1.08199 22349 ft 425 kts 346°
2026-05-03 20:31 52.52243 -1.08792 22852 ft 431 kts 357°
2026-05-03 20:31 52.55247 -1.08626 23408 ft 433 kts
2026-05-03 20:32 52.58255 -1.08394 23859 ft 435 kts
2026-05-03 20:32 52.61289 -1.08165 24256 ft 438 kts
2026-05-03 20:32 52.64346 -1.07932 24645 ft 441 kts
2026-05-03 20:32 52.67426 -1.07700 25022 ft 445 kts
2026-05-03 20:33 52.70530 -1.07469 25411 ft 448 kts
2026-05-03 20:33 52.73656 -1.07361 25816 ft 451 kts 355°
2026-05-03 20:33 52.76766 -1.08019 26196 ft 452 kts 347°
2026-05-03 20:33 52.79868 -1.08970 26608 ft 454 kts 347°
2026-05-03 20:34 52.82946 -1.09902 26986 ft 457 kts 347°
2026-05-03 20:34 52.86087 -1.10849 27355 ft 460 kts 347°
2026-05-03 20:34 52.89251 -1.11806 27695 ft 464 kts 347°
2026-05-03 20:34 52.92408 -1.12763 27909 ft 455 kts 347°
2026-05-03 20:35 52.95468 -1.13690 27944 ft 441 kts 347°
2026-05-03 20:35 52.98464 -1.14600 27941 ft 436 kts 347°
2026-05-03 20:35 53.01438 -1.15509 27947 ft 434 kts 347°
2026-05-03 20:35 53.04398 -1.16420 27937 ft 432 kts 347°
2026-05-03 20:36 53.06395 -1.17034 27938 ft 431 kts 347°
2026-05-03 20:36 53.09344 -1.17942 27940 ft 431 kts 347°
2026-05-03 20:36 53.12292 -1.18852 27939 ft 431 kts 347°
2026-05-03 20:36 53.15239 -1.19764 27940 ft 431 kts 347°
2026-05-03 20:37 53.18183 -1.20677 27944 ft 431 kts 347°
2026-05-03 20:37 53.21130 -1.21586 27942 ft 431 kts 347°
2026-05-03 20:37 53.24036 -1.22481 27938 ft 430 kts 347°
2026-05-03 20:37 53.27016 -1.23402 27950 ft 430 kts 347°
2026-05-03 20:38 53.29953 -1.24314 27956 ft 429 kts 347°
2026-05-03 20:38 53.32888 -1.25229 27956 ft 429 kts 347°
2026-05-03 20:38 53.35820 -1.26143 27954 ft 428 kts 347°
2026-05-03 20:38 53.38744 -1.27058 27951 ft 428 kts 347°
2026-05-03 20:39 53.41672 -1.27938 27948 ft 428 kts 350°
2026-05-03 20:39 53.44646 -1.28370 27949 ft 429 kts 354°
2026-05-03 20:39 53.47583 -1.28720 27947 ft 429 kts 354°
2026-05-03 20:39 53.50601 -1.29081 27945 ft 429 kts 354°
2026-05-03 20:40 53.53576 -1.29442 27945 ft 429 kts 354°
2026-05-03 20:40 53.56492 -1.30017 27950 ft 426 kts 346°
2026-05-03 20:40 53.59335 -1.31352 27950 ft 423 kts 336°
2026-05-03 20:40 53.61997 -1.33423 27950 ft 420 kts 327°
2026-05-03 20:41 53.64495 -1.35950 27952 ft 419 kts 326°
2026-05-03 20:41 53.66989 -1.38482 27952 ft 419 kts 326°
2026-05-03 20:41 53.69488 -1.41011 27951 ft 419 kts 326°
2026-05-03 20:41 53.71986 -1.43538 27949 ft 419 kts 326°
2026-05-03 20:42 53.74486 -1.46074 27962 ft 419 kts 326°
2026-05-03 20:42 53.76984 -1.48615 27966 ft 419 kts 326°
2026-05-03 20:42 53.79477 -1.51156 27961 ft 418 kts 326°
2026-05-03 20:42 53.81970 -1.53697 27967 ft 420 kts 326°
2026-05-03 20:43 53.84478 -1.56255 27859 ft 418 kts 326°
2026-05-03 20:43 53.86968 -1.58801 27242 ft 418 kts 326°
2026-05-03 20:43 53.89439 -1.61337 26708 ft 414 kts 326°
2026-05-03 20:43 53.91897 -1.63858 26168 ft 411 kts 327°
2026-05-03 20:44 53.94333 -1.66355 25657 ft 407 kts 327°
2026-05-03 20:44 53.96746 -1.68837 25166 ft 404 kts 327°
2026-05-03 20:44 53.99141 -1.71308 24959 ft 403 kts 327°
2026-05-03 20:44 54.01533 -1.73779 24973 ft 402 kts 327°
2026-05-03 20:45 54.03920 -1.76257 24985 ft 402 kts 326°
2026-05-03 20:45 54.06306 -1.78737 24985 ft 402 kts 326°
2026-05-03 20:45 54.08694 -1.81219 24987 ft 402 kts 326°
2026-05-03 20:45 54.11121 -1.83594 24986 ft 404 kts 333°
2026-05-03 20:46 54.13783 -1.85137 24994 ft 406 kts 346°
2026-05-03 20:46 54.16601 -1.85626 25003 ft 409 kts 359°
2026-05-03 20:46 54.19431 -1.85085 24811 ft 408 kts
2026-05-03 20:46 54.22219 -1.84226 24364 ft 406 kts
2026-05-03 20:47 54.24978 -1.83349 23932 ft 402 kts
2026-05-03 20:47 54.27712 -1.82469 23556 ft 397 kts
2026-05-03 20:47 54.30410 -1.81604 23073 ft 393 kts
2026-05-03 20:47 54.33088 -1.80753 22565 ft 390 kts
2026-05-03 20:48 54.35744 -1.79909 22069 ft 386 kts
2026-05-03 20:48 54.38378 -1.79077 21554 ft 383 kts
2026-05-03 20:48 54.40992 -1.78256 21059 ft 380 kts
2026-05-03 20:48 54.43583 -1.77440 20552 ft 377 kts
2026-05-03 20:49 54.46152 -1.76632 20036 ft 374 kts
2026-05-03 20:49 54.48704 -1.75823 19536 ft 371 kts
2026-05-03 20:49 54.51230 -1.75019 18989 ft 366 kts
2026-05-03 20:49 54.53719 -1.74227 18307 ft 363 kts
2026-05-03 20:50 54.56150 -1.73458 18063 ft 345 kts
2026-05-03 20:50 54.58449 -1.72730 17919 ft 327 kts
2026-05-03 20:50 54.60625 -1.72038 17785 ft 310 kts
2026-05-03 20:50 54.62697 -1.71375 17652 ft 296 kts
2026-05-03 20:51 54.64699 -1.70733 17491 ft 289 kts
2026-05-03 20:51 54.66665 -1.70103 17212 ft 287 kts
2026-05-03 20:51 54.68650 -1.69582 16491 ft 298 kts 359°
2026-05-03 20:51 54.70753 -1.70031 15766 ft 306 kts 341°
2026-05-03 20:52 54.72713 -1.71569 15059 ft 314 kts 330°
2026-05-03 20:52 54.74627 -1.73311 14379 ft 314 kts 331°
2026-05-03 20:52 54.76561 -1.75062 13698 ft 312 kts 331°
2026-05-03 20:52 54.78482 -1.76796 12975 ft 310 kts 331°
2026-05-03 20:53 54.80389 -1.78517 12238 ft 308 kts 332°
2026-05-03 20:53 54.82281 -1.80229 11520 ft 306 kts 332°
2026-05-03 20:53 54.84164 -1.81939 10821 ft 305 kts 332°
2026-05-03 20:53 54.86035 -1.83639 10138 ft 303 kts 333°
2026-05-03 20:54 54.87897 -1.85334 9415 ft 300 kts 333°
2026-05-03 20:54 54.91428 -1.88560 8870 ft 268 kts 333°
2026-05-03 20:54 54.93024 -1.90027 8737 ft 251 kts 333°
2026-05-03 20:55 54.94521 -1.91401 8607 ft 235 kts 333°
2026-05-03 20:55 54.95918 -1.92682 8473 ft 218 kts 334°
2026-05-03 20:55 54.97209 -1.93867 8383 ft 202 kts 334°
2026-05-03 20:55 54.98458 -1.94872 8056 ft 196 kts 348°
2026-05-03 20:56 54.99758 -1.94610 7796 ft 186 kts 28°
2026-05-03 20:56 55.00601 -1.93054 7664 ft 174 kts 59°
2026-05-03 20:56 55.01118 -1.91177 7387 ft 170 kts 69°
2026-05-03 20:56 55.01424 -1.89212 6952 ft 165 kts 75°
2026-05-03 20:57 55.01486 -1.87214 6306 ft 169 kts 96°
2026-05-03 20:57 55.01162 -1.85254 5667 ft 168 kts 105°
2026-05-03 20:57 55.00776 -1.83335 5037 ft 167 kts 106°
2026-05-03 20:57 55.00220 -1.81552 4409 ft 168 kts 120°
2026-05-03 20:58 54.99501 -1.79974 4053 ft 166 kts 133°
2026-05-03 20:58 54.98508 -1.78881 4038 ft 174 kts 158°
2026-05-03 20:58 54.97314 -1.78445 4044 ft 176 kts 169°
2026-05-03 20:58 54.96095 -1.78191 4038 ft 177 kts 173°
2026-05-03 20:59 54.94861 -1.78256 4039 ft 178 kts 184°
2026-05-03 20:59 54.93630 -1.78520 4037 ft 178 kts 186°
2026-05-03 20:59 54.92405 -1.78805 4036 ft 178 kts 186°
2026-05-03 20:59 54.91187 -1.79091 3931 ft 173 kts 186°
2026-05-03 21:00 54.90002 -1.79385 3348 ft 173 kts 188°
2026-05-03 21:00 54.89241 -1.79778 3068 ft 171 kts 201°
2026-05-03 21:00 54.87878 -1.81237 3028 ft 175 kts 231°
2026-05-03 21:00 54.87426 -1.83142 3032 ft 171 kts 268°
2026-05-03 21:01 54.87686 -1.85093 3037 ft 165 kts 304°
2026-05-03 21:01 54.88498 -1.86406 3038 ft 159 kts 336°
2026-05-03 21:01 54.89559 -1.86748 3043 ft 155 kts
2026-05-03 21:01 54.90637 -1.86649 3038 ft 155 kts
2026-05-03 21:02 54.91719 -1.86562 3036 ft 156 kts
2026-05-03 21:02 54.92801 -1.86478 3037 ft 155 kts
2026-05-03 21:02 54.93864 -1.86394 3026 ft 143 kts
2026-05-03 21:02 54.94794 -1.86322 3022 ft 130 kts
2026-05-03 21:03 54.95680 -1.86250 3028 ft 125 kts
2026-05-03 21:03 54.96545 -1.86182 3032 ft 124 kts
2026-05-03 21:03 54.97403 -1.86114 3033 ft 123 kts
2026-05-03 21:03 54.98258 -1.86044 3035 ft 123 kts
2026-05-03 21:04 54.99070 -1.85647 3031 ft 123 kts 32°
2026-05-03 21:04 54.99640 -1.84552 3035 ft 124 kts 62°
2026-05-03 21:04 55.00003 -1.83188 3045 ft 124 kts 63°
2026-05-03 21:04 55.00367 -1.81832 3039 ft 123 kts 63°
2026-05-03 21:05 55.00722 -1.80507 2781 ft 120 kts 63°
2026-05-03 21:05 55.01078 -1.79177 2377 ft 121 kts 63°
2026-05-03 21:05 55.01431 -1.77853 2048 ft 118 kts 63°
2026-05-03 21:05 55.01780 -1.76545 2054 ft 120 kts 63°
2026-05-03 21:06 55.02142 -1.75219 1894 ft 123 kts 61°
2026-05-03 21:06 55.02525 -1.73851 1413 ft 129 kts 62°
2026-05-03 21:06 55.02938 -1.72410 829 ft 137 kts 64°
2026-05-03 21:06 55.03320 -1.70904 456 ft 133 kts 67°
2026-05-03 21:07 55.03682 -1.69490 260 ft 118 kts 57°
2026-05-03 21:07 55.03953 -1.68399 249 ft 71 kts 75°
2026-05-03 21:07 55.04079 -1.67868 247 ft 37 kts 60°
2026-05-03 21:07 55.04209 -1.67516 244 ft 23 kts 47°
2026-05-03 21:08 55.04265 -1.67369 241 ft 17 kts
2026-05-03 21:08 55.04333 -1.67517 242 ft 18 kts 276°
2026-05-03 21:08 55.04312 -1.67704 245 ft 16 kts 251°
2026-05-03 21:08 55.04265 -1.67884 247 ft 17 kts 239°
2026-05-03 21:09 55.04205 -1.68079 247 ft 20 kts 249°
2026-05-03 21:09 55.04148 -1.68314 248 ft 22 kts 247°
2026-05-03 21:09 55.04083 -1.68578 249 ft 25 kts 243°
2026-05-03 21:09 55.04003 -1.68864 251 ft 27 kts 244°
2026-05-03 21:10 55.03920 -1.69174 253 ft 29 kts 245°
2026-05-03 21:10 55.03834 -1.69516 256 ft 33 kts 246°
2026-05-03 21:10 55.03778 -1.69900 260 ft 24 kts 264°
2026-05-03 21:10 55.03775 -1.70176 263 ft 18 kts 274°
2026-05-03 21:11 55.03794 -1.70370 267 ft 15 kts 310°
2026-05-03 21:11 55.03889 -1.70389 268 ft 11 kts
2026-05-03 21:11 55.03907 -1.70408 267 ft 1 kts 303°
2026-05-03 21:11 55.03907 -1.70412 267 ft 0 kts 295°
2026-05-03 21:12 55.03908 -1.70416 267 ft 1 kts 290°
2026-05-03 21:12 55.03909 -1.70433 267 ft 2 kts 281°
2026-05-03 21:12 55.03912 -1.70466 267 ft 3 kts 277°
2026-05-03 21:12 55.03913 -1.70495 267 ft 2 kts 272°
2026-05-03 21:13 55.03914 -1.70519 267 ft 2 kts 274°
2026-05-03 21:13 55.03915 -1.70537 267 ft 1 kts 274°
2026-05-03 21:13 55.03915 -1.70544 267 ft 0 kts 274°